Wind_Speed
6 8 8 7 6 6 7 8 10 8 2 3 5 7 6 6 5 7 8 5 6 8 7 6 6 6 4 7 11 14 18 20 20 20 19 18 17 17 17 18 18 18 18 18 19 19 20 21 21 20 16 14 19 28 37 44 47 50 51 49 45 43 41 39 37 34 31 27 22 20 18 15 14 12 11 10 10 9 9 10 10 10 10 12 14 17 20
4 6 7 8 7 6 8 9 7 4 5 7 6 6 6 7 7 9 7 5 7 6 5 5 5 7 9 11 15 17 19 19 19 19 17 16 16 16 17 18 19 20 19 19 19 19 19 20 20 21 20 18 16 20 28 33 38 46 51 50 47 43 40 39 34 31 29 25 22 20 18 15 14 12 10 9 7 7 8 9 9 9 11 14 17 19 20
4 4 6 7 7 7 9 8 2 2 4 6 5 6 5 4 5 6 3 5 6 5 5 3 5 11 13 14 15 16 17 15 15 15 12 12 13 14 15 17 18 20 21 21 21 20 20 20 19 18 18 19 19 18 23 27 31 40 48 51 48 43 42 39 32 29 29 26 24 22 19 16 15 12 9 6 5 6 8 9 9 11 14 16 18 18 18
4 4 6 7 4 5 9 6 1 2 8 6 4 5 3 2 4 2 1 4 5 4 5 3 4 10 12 10 11 13 12 11 10 9 9 10 12 13 14 16 17 19 21 23 23 22 21 21 21 18 16 17 17 18 21 27 32 37 44 50 49 46 46 42 35 33 31 29 27 24 19 17 15 11 7 4 5 7 8 9 11 14 16 17 17 17 17
5 4 5 3 3 4 9 7 5 6 7 4 2 2 1 2 3 3 3 5 5 3 3 4 5 7 7 7 9 10 9 6 5 7 10 12 14 15 16 18 18 19 20 22 24 25 24 23 23 20 16 15 16 16 18 25 32 37 43 47 46 45 46 43 38 36 33 31 29 24 20 18 15 9 6 6 7 8 9 11 14 16 17 16 16 16 17
5 5 2 4 2 5 8 6 6 7 5 4 2 1 2 3 2 3 4 3 2 3 2 3 4 5 5 7 7 5 4 4 6 9 14 16 18 20 21 22 23 23 23 24 25 27 27 25 24 23 19 16 17 17 17 22 28 33 39 43 44 45 46 45 41 37 34 33 30 24 22 20 14 9 8 7 7 9 11 14 16 17 17 16 17 18 20
5 3 2 1 6 7 4 3 3 5 6 7 6 4 3 3 1 4 4 2 1 2 1 3 5 7 9 9 5 1 2 6 12 16 19 21 23 24 25 26 26 27 27 28 29 29 29 28 26 25 23 19 17 18 20 23 25 28 32 38 43 46 47 45 41 37 36 35 30 26 24 20 14 10 8 7 9 11 14 16 17 17 17 18 19 21 23
3 2 4 5 7 4 3 4 5 3 3 4 2 2 2 2 3 6 5 4 5 5 3 3 6 11 13 8 1 2 5 12 18 20 22 24 26 27 27 27 28 29 30 31 31 30 29 29 27 26 25 22 19 19 21 23 25 25 28 34 39 43 44 41 38 38 39 35 29 27 25 19 13 11 9 10 11 13 15 16 17 17 18 19 21 21 21
4 4 4 3 5 6 5 4 4 4 3 4 4 3 4 3 2 6 6 4 5 5 4 5 8 14 14 5 3 4 13 20 23 23 23 24 26 27 27 27 28 29 30 31 32 31 30 30 29 26 25 24 21 20 21 22 23 24 25 29 34 36 35 33 33 36 35 30 28 27 23 16 12 11 11 12 13 14 15 16 16 16 18 19 18 18 19
3 4 4 3 4 6 5 4 5 8 5 4 7 4 2 5 2 2 4 3 4 4 5 9 13 15 13 6 6 13 22 26 28 28 28 27 26 27 27 28 29 29 30 32 33 34 34 32 29 26 24 24 22 20 22 24 25 26 25 27 32 32 29 29 32 34 31 28 27 24 18 13 12 12 13 13 12 13 14 15 14 15 15 15 16 19 21
1 3 4 4 5 5 4 4 7 13 12 2 4 3 3 5 4 4 2 2 3 3 5 8 10 9 6 6 10 19 26 29 30 31 32 31 30 29 29 29 30 31 32 35 36 36 37 35 31 26 24 24 22 21 23 26 28 29 29 30 33 31 30 33 36 35 31 27 25 20 16 14 13 13 13 12 11 12 12 12 12 13 14 15 18 23 25
1 2 3 3 2 3 3 4 8 13 13 7 4 1 5 6 6 5 2 2 4 4 5 5 3 1 4 9 18 28 31 32 32 32 33 34 34 34 33 32 33 34 35 37 37 36 36 35 31 26 24 25 24 24 25 27 31 33 31 30 31 33 36 38 35 31 28 26 22 18 16 15 14 13 12 9 7 7 8 9 11 14 15 16 20 24 26
1 1 2 3 1 2 3 4 8 11 10 7 3 4 6 9 8 3 1 3 5 6 7 6 6 9 14 20 29 33 32 32 34 34 34 36 36 35 36 36 37 38 39 38 36 35 35 33 28 24 24 25 25 25 25 28 35 38 33 31 35 38 39 37 32 28 27 24 20 17 15 15 14 12 7 1 3 6 7 9 12 15 16 18 21 25 27
1 2 2 3 2 2 4 5 8 7 4 2 2 4 8 11 8 5 5 7 8 8 10 11 13 18 23 26 31 34 33 32 34 35 35 36 37 38 38 39 39 41 40 37 34 33 31 27 24 23 24 25 26 27 28 30 37 40 37 37 39 38 35 33 31 29 26 23 19 17 16 13 11 7 4 7 9 8 8 10 13 15 17 19 23 26 28
1 0 1 1 0 2 4 4 4 3 1 2 7 10 12 11 9 9 10 11 10 10 12 14 17 21 24 26 29 32 33 32 32 33 33 34 37 39 41 42 43 42 40 37 33 29 26 24 23 23 23 26 28 29 29 30 35 39 38 38 38 36 35 35 32 28 24 21 18 16 13 9 7 6 7 9 10 8 9 11 13 15 18 20 23 26 27
1 1 2 2 2 4 3 2 3 4 5 7 9 9 9 9 9 9 10 10 11 12 14 17 19 21 24 26 27 28 31 31 31 32 33 34 38 41 44 45 43 38 36 33 28 24 23 24 23 21 21 26 28 28 31 32 35 38 39 38 38 38 38 35 30 25 21 18 16 13 10 8 7 6 5 6 8 9 9 11 13 16 19 21 24 25 27
2 4 5 6 7 7 5 6 7 5 4 6 7 7 7 7 7 7 9 11 14 16 17 19 21 23 25 26 26 27 29 30 31 32 35 37 40 42 43 39 33 28 27 27 24 23 23 22 22 21 23 26 26 26 30 34 39 43 43 41 41 39 36 31 25 21 18 16 15 12 9 8 6 4 3 4 7 8 8 10 13 16 19 21 23 25 27
4 6 7 6 8 13 15 12 5 2 6 9 10 10 11 11 10 11 14 16 19 20 21 22 24 26 27 27 27 27 29 31 33 35 37 39 41 39 34 28 24 23 23 21 21 22 20 17 19 20 20 22 24 26 31 35 39 41 40 38 37 35 31 26 22 19 18 17 14 11 8 7 5 3 2 4 6 7 8 10 13 16 18 20 22 25 27
3 4 4 6 12 20 20 11 4 6 11 12 11 12 13 14 15 17 18 20 22 23 24 24 26 28 27 27 28 29 30 33 35 36 39 42 39 32 26 25 25 23 21 18 17 18 15 11 13 14 11 12 20 27 31 34 36 37 37 36 34 32 28 25 21 19 18 16 13 10 8 6 4 2 1 6 8 7 7 9 13 15 17 19 21 24 27
3 5 9 15 21 22 14 7 9 14 14 12 14 15 16 17 19 20 21 21 21 22 24 25 26 28 27 26 28 31 32 34 36 38 40 39 32 26 25 26 25 22 20 16 12 13 12 6 13 15 10 11 20 30 33 34 36 37 37 35 33 29 26 23 20 18 17 15 12 10 8 5 4 2 3 8 8 6 7 11 14 16 17 20 22 24 27
6 7 11 15 18 16 11 12 16 16 14 15 19 20 20 22 24 25 25 24 23 24 24 24 25 27 27 27 29 31 33 35 37 38 37 31 26 25 26 25 22 19 15 13 11 14 11 7 16 14 8 12 25 32 31 32 34 35 35 34 31 27 24 21 18 16 16 13 10 8 7 6 4 2 8 10 8 8 10 13 15 16 17 20 22 24 27
5 6 8 9 7 8 12 16 16 16 17 21 23 23 25 27 26 26 27 26 26 26 26 24 24 25 26 27 28 31 34 37 36 34 30 26 25 26 24 21 20 16 13 13 16 15 10 13 14 13 13 18 30 33 31 33 36 36 35 33 30 26 22 19 18 17 14 11 9 9 8 5 2 5 9 9 8 10 12 13 14 16 18 21 23 24 27
7 12 16 12 7 9 17 21 21 22 24 25 26 27 28 27 26 25 25 25 26 26 26 24 23 23 24 26 28 32 35 35 32 29 27 27 27 26 21 17 15 15 13 13 13 7 11 10 10 11 18 27 34 35 35 36 35 33 32 31 29 26 21 19 18 16 12 11 11 10 6 3 4 6 8 7 7 9 11 13 15 17 20 22 23 24 26
12 17 21 18 15 17 23 26 28 28 28 27 28 29 28 26 25 24 23 24 25 24 24 23 22 23 25 27 28 31 31 29 28 28 27 26 25 22 17 13 12 13 13 11 7 12 11 8 14 25 33 35 35 35 33 30 28 29 30 30 27 23 20 19 17 15 12 10 9 7 3 3 4 7 8 8 8 9 12 15 16 17 20 21 22 23 24
19 22 24 24 24 25 27 30 32 31 27 25 25 26 25 24 25 25 25 24 24 23 23 23 23 23 25 25 24 24 25 26 27 26 24 22 20 16 13 11 11 12 13 8 15 18 16 20 30 36 37 34 30 28 25 24 25 28 28 26 23 21 19 18 16 14 12 10 7 3 2 2 3 6 9 10 11 12 14 16 16 17 19 21 21 22 23
25 27 28 26 26 26 26 28 30 30 26 22 22 24 25 26 26 26 25 24 23 23 23 24 23 22 20 19 19 20 22 24 22 19 18 17 15 13 10 10 10 11 9 9 20 22 26 33 36 35 34 31 26 24 25 26 27 27 25 23 22 20 18 16 14 12 9 6 2 1 1 1 2 7 10 12 14 14 15 16 16 18 19 20 21 22 22
22 23 23 21 22 25 26 26 28 29 27 24 25 26 27 27 26 24 23 23 23 24 24 22 20 19 16 14 15 17 17 15 13 13 13 12 12 13 12 10 9 7 7 16 23 27 33 38 35 32 31 29 26 26 27 26 26 25 24 22 20 16 14 13 11 9 6 2 1 1 3 3 4 8 11 14 15 14 13 14 16 18 19 19 21 23 24
22 22 21 18 20 25 28 29 29 28 27 26 25 23 23 23 22 21 21 21 21 22 22 18 15 15 14 11 12 12 10 7 7 8 8 6 9 10 7 6 9 13 18 23 26 30 35 36 32 29 29 29 28 26 24 25 26 24 20 18 15 12 11 11 9 6 4 3 1 2 3 4 7 10 12 13 14 12 12 12 14 17 19 19 21 24 25
22 22 22 22 24 26 28 27 26 25 23 21 19 17 17 17 17 16 17 17 18 19 17 13 12 12 7 5 8 10 12 11 8 9 9 7 9 13 16 17 18 21 24 26 27 30 32 31 28 27 27 27 24 22 22 25 25 20 15 13 13 11 10 10 8 4 2 2 2 3 2 5 8 10 10 10 10 11 12 12 12 16 19 19 22 26 29
23 23 23 24 22 20 18 18 17 17 16 15 14 14 13 13 14 15 15 14 15 13 8 5 6 4 3 8 11 15 19 18 18 21 22 22 24 27 29 28 28 28 29 29 30 31 29 26 24 24 24 23 21 22 23 23 19 15 13 12 12 11 9 8 5 1 1 0 3 4 4 6 7 7 7 8 9 11 13 12 11 16 20 21 23 28 31
23 21 19 17 13 10 10 11 12 13 14 14 15 17 16 15 15 16 15 15 13 8 5 4 3 6 10 13 14 18 22 23 25 28 32 35 37 35 33 32 34 35 34 31 30 28 25 22 21 21 20 20 20 20 20 18 16 15 14 13 12 10 7 4 2 2 3 3 4 5 4 4 4 3 5 7 8 10 11 10 10 15 21 23 24 27 30
12 11 9 9 10 10 11 12 13 15 16 16 17 18 19 17 17 16 15 13 7 7 10 8 7 11 14 16 19 21 25 27 28 31 35 37 38 37 36 38 40 39 36 33 30 28 25 24 24 22 20 19 19 19 18 17 16 15 13 11 10 8 6 5 6 7 7 5 5 6 5 3 2 2 4 5 6 8 9 8 8 14 20 22 23 26 28
11 10 8 10 12 12 12 13 13 14 13 12 12 14 15 14 14 14 10 5 9 15 16 16 16 18 19 22 24 25 27 29 30 32 34 34 32 31 33 36 37 36 34 31 29 29 28 27 25 23 19 18 17 17 16 14 13 12 11 10 9 8 7 8 9 10 8 6 7 7 4 1 1 2 3 3 5 8 9 7 8 13 18 20 22 24 27
9 8 7 9 9 8 9 12 12 11 10 8 8 10 11 10 8 6 9 18 23 24 23 24 25 25 26 27 28 27 27 29 32 34 35 35 34 32 30 29 28 27 24 22 21 22 23 23 22 20 20 19 18 17 16 15 14 13 12 11 11 10 9 8 8 9 8 7 6 5 2 1 2 3 3 4 6 8 9 8 8 12 16 18 20 22 25
8 8 6 6 5 5 6 7 7 6 6 5 5 5 4 8 13 19 24 27 27 28 29 29 29 29 29 29 29 29 29 30 32 33 33 35 35 34 32 30 28 25 23 22 20 18 20 20 19 17 18 18 16 15 14 14 13 13 14 14 14 13 11 10 10 9 8 6 5 4 3 3 4 3 4 6 8 9 9 8 8 10 14 17 19 20 22
10 9 8 6 5 4 4 7 10 10 8 10 15 20 22 25 27 27 27 27 27 29 30 29 29 30 31 31 30 30 29 29 30 31 32 33 33 32 32 33 32 30 28 26 23 20 19 19 17 17 18 19 18 16 14 12 13 13 14 14 13 13 12 12 11 9 8 6 5 4 4 4 3 3 5 6 8 10 10 8 7 9 12 15 17 18 20
11 11 10 10 9 11 15 18 18 16 16 19 23 25 26 28 29 28 28 29 30 29 28 28 29 30 30 29 28 27 26 26 26 27 28 29 30 31 32 33 33 32 32 30 25 20 18 17 16 17 19 20 19 18 15 13 12 13 12 11 10 9 9 9 8 7 6 5 4 4 4 3 3 4 5 5 7 10 10 9 8 10 11 13 16 18 18
15 15 16 16 17 19 22 24 25 24 25 27 29 28 28 29 31 32 32 31 30 28 26 27 27 27 26 25 25 25 24 22 21 22 23 24 26 29 31 32 32 32 32 30 26 21 19 17 18 19 20 20 19 17 14 12 12 12 12 11 9 7 6 6 6 6 5 4 3 3 3 3 4 5 6 6 7 9 10 9 10 11 11 12 14 16 16
21 21 21 21 22 24 26 27 28 29 30 31 32 33 32 31 32 33 33 32 30 28 27 27 28 28 28 29 29 29 28 26 25 25 25 25 27 29 30 30 29 28 26 24 22 22 21 20 19 19 20 19 17 15 12 10 9 10 10 9 8 8 7 6 6 6 5 4 3 3 3 3 4 6 8 8 8 9 9 9 10 11 11 12 13 14 15
24 25 26 27 28 30 31 31 32 32 33 33 35 36 35 34 34 35 35 33 31 29 29 29 30 30 30 30 30 30 30 28 28 28 27 26 27 27 27 27 25 22 19 17 17 18 19 19 19 19 19 17 15 13 11 9 7 6 5 5 5 5 5 5 4 3 3 2 2 3 4 4 4 6 9 10 10 10 10 10 10 10 10 11 12 12 13
20 22 24 26 28 30 32 34 35 35 35 35 35 34 33 33 33 34 33 32 30 28 28 28 29 28 27 27 27 27 26 25 24 24 24 24 24 25 25 25 22 19 16 15 13 12 13 15 16 17 16 14 12 11 8 7 6 5 5 5 5 5 5 5 4 4 4 4 4 5 6 6 7 8 9 10 11 12 12 11 10 9 8 9 10 11 11
16 18 19 21 22 24 27 29 32 33 34 34 33 31 29 28 29 30 29 27 26 26 26 24 23 22 21 21 21 22 22 21 21 20 21 22 22 23 23 21 19 16 15 13 12 10 10 11 12 13 13 12 11 9 7 6 6 7 7 8 8 8 8 8 8 8 8 8 7 8 8 8 8 8 9 10 10 11 11 11 11 9 8 8 9 9 10
16 18 19 20 21 21 22 24 25 27 28 29 29 28 27 26 26 26 25 23 22 22 21 19 18 17 16 16 16 17 18 18 17 17 18 19 19 19 19 17 15 14 13 12 11 10 10 10 10 11 12 11 9 8 7 7 7 7 8 8 8 8 8 8 9 9 8 8 8 9 9 8 8 9 9 9 9 9 10 11 11 10 9 9 8 8 8
18 20 21 22 23 23 22 23 23 23 23 23 22 22 22 22 21 21 20 19 18 17 16 15 14 13 12 12 12 14 15 15 14 13 13 13 14 15 16 15 13 12 11 10 9 9 9 9 10 10 10 9 8 7 6 6 7 7 6 6 6 5 6 6 6 6 6 6 7 7 8 8 8 8 8 8 8 9 9 10 11 11 11 10 9 7 7
22 22 22 23 24 24 24 24 24 24 23 22 22 21 21 20 19 18 17 17 18 17 15 14 14 13 12 12 12 12 12 12 11 10 10 11 12 13 13 13 12 11 11 10 8 8 7 8 8 8 8 8 7 5 4 5 5 5 5 4 4 4 4 4 4 4 5 5 6 6 7 7 7 7 8 8 8 9 10 10 11 11 11 10 10 8 7
19 20 21 22 22 23 24 23 23 23 23 23 23 23 22 20 19 18 17 17 17 17 16 15 14 14 14 13 13 13 12 12 11 11 12 13 13 13 12 12 12 11 10 9 8 7 7 7 6 6 6 6 5 4 4 4 3 3 3 3 3 3 3 3 3 3 4 4 5 6 7 7 7 7 8 8 8 8 9 9 10 10 10 10 10 10 8
16 16 17 18 18 19 20 20 19 19 20 20 21 20 19 18 17 17 16 15 15 14 14 13 13 12 12 11 10 11 11 12 11 11 12 12 12 11 11 11 11 10 10 9 9 8 7 6 5 5 5 4 3 3 3 2 2 2 2 2 2 2 3 2 3 3 3 4 5 5 5 6 6 7 7 7 7 8 8 8 9 10 10 10 10 10 9
11 12 12 12 12 14 15 15 15 16 17 17 17 16 15 14 14 14 13 12 12 12 12 11 11 11 11 11 10 9 9 10 10 10 10 11 11 10 10 11 11 10 9 9 9 8 7 6 4 3 3 2 2 2 1 1 1 2 2 2 2 3 3 2 3 3 3 3 3 4 4 5 5 5 6 6 6 7 8 8 9 9 10 10 11 11 10
8 9 10 10 10 10 10 10 11 13 13 13 12 11 10 9 10 10 9 8 8 9 9 9 10 10 11 11 10 9 10 10 10 10 10 10 10 10 10 11 11 11 11 9 9 8 6 5 3 2 2 2 1 1 1 1 2 2 2 2 3 4 4 4 4 4 3 3 3 3 4 4 4 5 5 6 6 7 8 9 9 9 9 10 10 11 12
12 12 12 12 11 9 8 7 8 9 9 8 8 7 5 4 6 7 6 6 7 6 6 6 7 7 8 8 9 9 9 10 10 9 8 9 10 10 11 11 12 12 12 11 10 8 6 3 2 2 4 4 3 3 3 3 3 2 2 2 3 3 4 4 4 4 4 3 3 3 3 4 4 5 5 6 7 8 9 10 11 11 11 10 10 11 12
11 10 9 8 7 7 7 7 7 6 5 4 5 5 4 4 5 5 4 5 6 6 4 3 3 4 6 7 8 9 10 9 9 8 8 8 9 10 10 11 12 12 12 12 10 8 6 4 2 1 3 4 4 3 3 2 1 1 1 2 3 3 4 4 5 5 4 4 4 4 4 5 5 5 6 7 8 9 11 12 13 13 13 13 12 12 12
6 5 4 4 5 6 8 8 6 5 4 4 3 3 4 4 3 3 5 7 8 7 4 2 1 3 5 6 8 9 10 10 10 10 9 9 9 9 10 10 11 11 11 10 10 9 7 6 4 3 2 1 1 1 1 0 2 3 4 4 5 5 5 5 6 7 7 6 6 6 6 6 6 6 7 7 9 10 12 12 13 13 13 13 13 12 11
Wind_Direction
217 189 204 217 211 240 250 246 264 275 260 225 232 232 213 153 154 250 250 207 220 266 301 330 327 330 351 14 28 35 32 25 20 16 11 6 2 356 351 352 349 346 344 339 338 341 340 337 339 344 342 315 282 266 252 242 238 238 237 233 225 220 224 231 236 236 233 230 229 227 224 224 224 226 230 233 236 241 248 257 267 276 285 289 287 285 285
239 210 219 220 214 236 252 249 244 231 237 240 234 235 215 180 201 237 250 257 248 252 290 321 7 46 53 45 37 27 21 17 10 5 3 358 354 347 341 340 337 333 333 331 328 328 333 334 332 333 336 334 318 288 266 254 247 242 238 232 223 215 216 222 230 236 235 233 233 230 225 226 225 225 230 233 239 252 263 272 280 286 287 284 283 286 291
291 264 244 234 229 235 249 257 219 156 259 264 245 239 217 201 241 247 247 282 271 262 282 300 66 63 55 45 31 18 13 9 359 357 359 353 345 338 331 327 324 321 319 320 322 322 325 329 329 328 324 324 328 311 282 268 259 248 239 230 223 218 214 214 221 230 230 233 235 228 224 226 225 224 228 237 254 268 275 283 288 289 287 287 290 296 302
284 267 252 253 272 288 274 268 173 232 272 272 242 241 225 215 257 261 275 275 259 265 295 308 55 57 52 40 17 6 5 359 352 357 1 349 339 333 327 321 317 315 313 314 318 320 321 321 321 321 315 309 314 311 291 272 259 248 238 228 224 221 214 209 212 216 220 227 227 220 220 222 219 221 230 245 267 273 280 288 289 287 289 292 297 301 302
275 260 252 267 30 336 282 253 193 209 243 250 268 308 299 192 187 168 201 236 236 251 321 348 7 28 39 23 2 354 351 0 17 12 360 348 339 334 329 324 320 316 313 314 315 316 316 315 313 312 308 297 295 301 296 276 257 245 235 228 222 218 213 207 204 204 211 218 215 211 216 216 213 218 229 242 260 269 276 281 283 284 288 291 292 292 292
260 268 324 32 2 267 254 227 181 174 182 191 193 189 211 213 163 134 166 201 267 298 9 18 340 344 360 358 357 350 342 14 17 353 343 339 333 329 326 323 321 317 313 311 310 311 311 309 308 307 301 292 287 290 295 283 259 240 231 226 220 214 211 205 200 200 204 205 204 206 209 209 209 214 221 236 251 259 268 273 276 280 283 285 286 289 296
240 257 68 344 265 243 227 236 211 168 143 147 162 167 204 231 172 111 126 141 265 265 344 350 325 330 338 341 343 295 296 347 343 332 330 330 326 323 322 319 316 313 310 307 306 307 306 304 303 303 300 294 284 283 294 291 266 238 225 222 217 211 208 205 202 201 196 193 196 199 199 200 202 204 215 231 240 252 263 268 272 277 281 286 293 300 307
219 193 164 218 255 264 262 278 271 232 140 113 152 239 295 275 152 134 146 193 218 219 249 309 325 330 328 322 267 219 311 335 334 326 323 322 319 317 317 315 312 310 309 308 308 307 304 300 299 298 298 296 285 280 288 287 271 250 231 218 212 209 206 206 204 196 188 187 191 192 190 192 193 197 213 227 237 250 258 262 271 281 289 296 302 309 316
206 209 210 240 310 312 274 251 269 267 220 166 172 212 258 268 181 145 155 201 228 232 262 305 332 337 332 312 208 299 324 330 329 322 317 315 312 309 308 306 306 307 307 308 309 307 303 298 295 293 293 292 285 275 274 273 264 254 236 217 212 212 208 203 200 192 183 182 185 184 184 185 188 198 212 223 235 247 254 264 277 286 293 302 310 317 324
190 212 243 289 298 277 263 264 317 345 360 144 136 115 255 260 251 160 160 208 264 282 320 338 347 349 343 313 282 313 325 326 322 318 314 312 308 306 304 303 303 304 306 307 306 304 301 296 293 291 286 283 277 265 261 259 250 241 230 213 209 211 207 200 196 190 183 181 182 181 180 182 190 202 213 223 236 246 258 274 284 289 297 308 318 323 325
134 172 221 254 239 238 271 295 322 349 356 17 116 71 278 263 303 331 311 272 292 313 330 339 354 360 339 289 293 312 320 320 317 314 313 311 309 307 304 304 304 304 305 306 304 302 299 294 292 289 278 272 269 256 252 253 242 229 221 210 205 204 203 199 193 186 181 180 180 178 179 186 196 206 214 226 241 251 269 283 288 295 303 308 315 320 323
191 146 219 254 226 228 287 307 315 337 353 19 67 90 257 274 315 331 310 275 299 315 310 316 352 329 265 281 300 309 314 314 312 312 310 308 307 305 304 303 303 302 302 302 301 298 295 292 291 286 272 265 263 254 250 250 238 223 213 206 201 200 198 191 183 177 177 179 178 178 183 191 198 206 212 224 246 270 291 297 297 302 303 302 308 314 318
224 170 239 262 265 267 278 295 307 323 356 35 87 198 255 290 301 300 246 273 293 296 286 277 266 270 282 293 301 304 306 306 305 305 305 303 301 299 300 301 301 300 299 298 297 294 292 292 290 279 266 260 257 252 250 245 232 221 209 197 193 193 189 182 177 177 179 178 177 179 184 191 196 198 198 211 355 341 325 308 303 304 300 300 305 310 314
230 175 206 256 296 286 264 284 307 326 20 77 211 265 302 303 288 274 282 287 290 289 283 278 279 288 295 297 297 297 297 297 298 298 298 298 297 296 298 298 299 299 298 296 295 292 291 291 286 273 263 260 256 254 252 241 227 219 208 194 189 188 184 179 178 178 175 173 176 180 182 185 182 164 84 31 14 352 328 312 306 304 300 301 305 308 312
291 270 247 226 215 268 269 293 330 357 32 276 285 300 309 301 283 278 286 291 295 296 290 286 286 288 291 289 289 291 293 293 295 295 295 296 296 297 299 299 300 300 297 295 293 291 290 289 280 266 261 261 258 254 248 234 216 207 198 189 186 185 181 177 174 170 169 171 174 176 171 153 123 91 47 19 3 340 318 311 307 301 299 301 305 308 312
308 276 223 197 241 268 260 267 285 280 286 303 307 303 300 300 295 290 292 295 298 296 291 288 287 285 284 285 289 293 295 295 296 296 297 298 298 300 301 301 300 299 295 293 290 286 286 283 272 260 256 255 252 248 243 226 203 193 187 181 179 179 173 166 162 162 163 164 162 157 141 114 94 72 37 1 342 326 311 306 304 300 299 302 307 310 311
241 232 233 251 273 277 276 279 277 279 312 338 337 322 311 312 306 293 294 299 301 300 293 287 285 284 286 291 296 297 297 297 298 299 299 300 302 303 303 301 301 299 295 291 288 285 284 280 269 257 248 244 240 236 228 209 189 182 179 173 169 169 164 158 158 159 158 155 153 145 122 105 100 71 24 337 322 318 308 302 301 300 301 306 310 310 308
298 278 264 276 299 306 309 306 293 336 357 350 345 334 321 312 300 291 293 298 302 303 298 291 288 289 292 296 298 297 297 298 299 300 301 303 305 304 301 300 302 302 296 291 288 285 282 273 262 251 240 235 232 221 209 196 184 178 173 164 158 160 159 155 155 156 154 149 145 141 129 110 97 79 357 322 319 313 302 301 304 306 309 313 313 311 311
303 287 282 307 307 304 307 305 302 335 336 334 334 329 320 315 310 303 299 299 300 303 301 295 291 292 295 297 296 297 297 298 299 301 302 304 304 301 298 300 302 301 295 289 285 281 276 257 234 221 207 209 209 195 185 180 175 166 159 154 153 154 153 151 152 155 156 150 139 140 146 126 98 115 316 335 331 314 303 311 317 318 319 321 320 318 319
255 262 283 297 299 299 299 294 309 323 326 321 318 316 312 311 310 307 303 298 296 300 303 299 294 293 294 294 295 296 297 297 299 301 303 304 302 299 298 297 296 296 290 278 274 285 291 248 189 183 166 156 167 164 159 160 159 154 150 151 150 148 148 151 153 153 154 152 142 136 140 138 137 136 1 351 346 334 324 326 330 331 330 331 329 326 326
291 279 290 303 306 306 304 304 310 315 314 311 311 309 305 305 304 303 302 296 291 293 297 297 295 294 294 294 294 294 294 296 299 301 303 303 300 298 298 294 291 289 274 253 266 290 287 203 173 182 190 164 159 156 153 154 153 151 150 149 145 144 147 152 153 151 149 147 141 137 139 148 158 19 5 7 5 353 341 340 343 342 340 341 338 332 331
288 272 293 312 311 297 301 312 316 313 312 313 310 306 305 305 303 302 301 297 291 288 288 291 295 298 299 297 294 292 294 296 298 300 301 300 298 298 297 290 281 266 242 251 281 281 237 194 197 222 221 180 161 156 154 152 150 149 147 146 145 145 146 147 149 150 145 139 139 143 140 125 74 14 13 17 5 350 350 356 357 353 350 349 343 334 332
260 271 285 297 294 281 294 306 310 307 309 310 305 302 304 302 299 300 298 295 294 291 287 287 292 298 299 297 294 295 296 295 295 295 295 296 298 298 294 280 255 231 235 273 285 233 191 205 222 202 175 161 156 154 153 152 151 150 150 150 150 147 141 138 142 144 144 142 141 140 131 77 33 26 26 16 350 348 5 13 8 2 358 353 344 335 333
267 275 283 292 294 289 293 302 304 302 302 302 298 298 298 296 294 296 295 293 295 296 293 289 289 294 298 296 295 295 294 293 293 293 292 295 297 292 281 260 229 229 261 277 222 174 179 187 159 148 149 153 154 153 153 151 149 151 153 153 151 146 138 134 136 138 138 136 131 122 97 47 36 33 29 21 7 9 19 19 12 6 1 354 346 341 338
280 285 292 295 294 293 296 299 297 295 296 297 295 294 294 293 292 292 292 292 293 294 293 292 295 299 299 296 294 294 293 293 294 294 294 295 289 274 260 241 231 259 284 249 183 172 163 151 145 144 149 152 150 147 149 151 151 152 153 152 149 145 140 138 137 133 126 124 122 110 73 55 42 31 29 32 32 31 28 22 14 8 3 355 349 346 344
285 288 292 293 292 293 294 292 291 293 294 293 291 292 293 295 294 293 291 289 289 291 292 295 300 303 298 294 296 297 295 294 294 295 297 292 271 249 239 231 238 271 279 201 176 167 155 150 148 148 151 153 150 146 148 150 149 147 148 148 146 143 143 142 137 129 123 122 117 112 150 155 39 32 36 40 37 32 26 21 13 8 4 357 351 352 352
293 292 292 291 290 291 291 289 292 296 295 291 291 294 295 293 292 292 290 288 289 291 289 290 295 295 290 294 304 307 305 304 300 297 295 278 245 237 243 238 232 233 187 168 169 165 159 155 153 151 152 153 150 149 149 149 146 143 142 144 145 142 142 141 135 127 125 107 31 140 164 141 60 49 50 46 37 29 21 15 8 5 3 357 354 358 360
298 297 294 288 285 288 291 292 294 296 295 293 293 295 296 292 289 288 287 288 289 286 281 281 284 283 284 300 318 330 345 347 323 316 313 272 230 227 225 195 169 155 148 152 159 159 155 154 154 151 149 147 149 153 153 147 142 139 138 140 140 137 136 138 139 137 115 81 82 187 163 96 68 63 56 43 30 21 14 9 5 4 2 357 358 5 7
297 298 297 293 290 291 292 292 293 293 292 290 286 287 291 293 289 284 281 283 286 283 275 267 267 270 285 341 5 26 45 50 39 40 60 104 137 131 120 117 126 133 133 135 140 142 142 146 147 142 137 139 145 148 145 140 138 138 138 139 141 142 143 145 150 147 81 63 155 182 123 83 76 69 54 35 20 10 3 359 2 8 7 2 4 10 11
300 299 297 296 296 295 294 296 298 295 290 288 284 280 283 288 286 280 277 281 285 279 261 237 240 243 74 65 63 65 69 73 73 73 81 96 108 114 116 116 116 115 113 116 123 131 135 136 131 125 128 137 144 144 142 142 144 144 141 145 152 156 155 154 158 165 359 97 172 165 116 89 81 68 44 23 12 4 356 350 359 12 13 11 11 12 10
303 301 296 295 301 303 302 304 304 295 290 289 285 280 278 278 275 272 276 284 280 249 185 143 124 111 95 87 87 84 81 84 84 79 80 89 100 109 116 115 110 106 106 109 116 122 126 124 117 116 125 135 140 141 143 144 144 143 143 150 157 157 150 145 138 104 90 124 166 171 138 95 77 42 5 0 4 3 357 352 359 10 12 13 15 15 11
326 327 322 320 321 316 310 308 304 300 298 296 289 282 276 270 266 268 277 281 260 171 138 113 103 108 103 99 101 97 89 87 87 82 81 87 94 100 104 107 107 107 108 110 113 115 117 117 117 121 129 133 131 130 132 134 137 137 136 137 138 132 121 117 119 113 108 120 151 157 141 102 55 3 353 356 0 7 8 2 358 4 8 12 17 18 15
9 7 355 337 327 323 322 321 318 317 318 313 298 287 277 265 263 267 262 212 141 125 115 104 102 107 106 101 100 99 95 92 89 85 85 86 86 87 91 99 103 104 102 101 103 105 108 109 111 119 129 132 129 125 122 122 121 118 114 115 119 120 122 124 121 118 118 130 144 148 146 124 57 49 41 15 6 17 22 12 356 358 4 10 18 21 18
5 353 339 330 326 321 318 318 322 332 336 326 304 292 282 265 248 214 147 124 114 111 110 105 101 102 102 100 97 98 97 92 85 81 83 86 86 85 87 91 96 99 98 97 96 97 97 100 106 114 120 121 118 114 110 109 108 108 109 109 107 111 119 123 120 123 131 141 148 152 150 122 97 73 43 15 11 20 27 19 359 352 359 10 20 22 20
15 5 358 349 339 324 310 319 348 18 19 16 37 60 100 127 121 114 110 106 102 103 105 104 101 100 99 97 95 94 91 87 82 82 84 86 89 91 93 93 93 93 93 94 93 89 87 91 99 108 111 112 112 111 111 114 115 114 112 106 98 99 109 120 128 138 147 154 160 156 113 91 94 77 38 19 13 14 17 15 3 351 356 10 21 21 20
29 30 31 22 16 36 67 71 74 80 81 76 76 84 97 103 100 98 101 102 100 101 103 102 99 97 93 91 90 89 87 85 84 84 84 84 88 93 93 91 89 89 88 88 87 84 83 87 95 103 105 105 107 110 115 122 125 123 121 116 108 108 118 127 135 142 146 145 144 127 89 73 72 62 45 33 22 14 9 6 358 347 353 9 20 20 20
49 56 63 66 75 90 91 87 86 90 95 91 86 87 94 97 96 96 100 100 98 98 98 97 95 92 89 87 86 84 82 82 83 83 81 83 88 91 87 82 82 83 82 81 81 84 88 92 98 103 105 104 104 105 108 113 118 122 127 131 129 126 125 125 126 131 139 142 134 105 71 52 53 60 58 49 32 19 10 1 351 344 349 7 17 18 18
72 77 82 86 91 93 93 93 95 98 96 93 89 89 94 99 100 100 100 98 97 97 95 93 91 89 86 83 80 76 73 73 74 77 78 79 83 83 78 73 73 75 75 75 79 86 94 99 102 103 103 102 101 101 102 106 110 113 118 128 138 143 137 125 120 124 133 141 138 109 75 59 61 59 52 44 35 24 14 5 355 346 348 2 14 16 18
81 83 87 90 92 91 92 95 98 98 96 94 92 93 98 103 105 103 101 99 98 96 91 88 87 85 83 83 81 79 78 77 76 76 76 75 75 75 72 69 70 72 73 75 80 84 89 97 101 99 96 95 94 93 93 97 101 104 106 111 119 125 126 123 122 120 116 114 111 95 81 79 68 49 40 38 36 28 19 9 358 348 346 355 8 15 17
82 84 85 86 87 86 86 89 91 92 94 95 94 94 98 101 102 101 99 97 95 92 90 89 89 87 85 84 83 82 82 82 81 81 81 80 79 78 74 70 69 71 73 74 76 78 82 88 90 86 83 82 81 79 76 74 75 82 90 91 93 102 111 116 116 107 95 95 101 96 86 79 62 44 37 34 31 26 20 13 1 349 342 347 1 14 18
81 83 83 82 83 83 84 86 89 91 93 95 95 96 99 102 102 101 99 98 98 97 96 96 94 89 84 82 81 80 80 81 81 81 82 80 77 74 70 65 63 64 67 69 71 73 75 78 79 75 69 65 61 56 49 43 40 42 52 64 71 81 88 86 77 69 70 80 96 97 84 68 55 46 40 35 28 22 21 19 9 355 345 348 357 9 18
83 84 82 79 80 82 83 85 88 90 91 93 95 97 99 101 101 100 99 99 99 99 98 97 95 91 87 85 84 82 79 77 76 77 77 73 69 66 64 60 56 56 56 55 57 61 65 68 69 64 56 51 48 41 32 32 38 46 57 70 74 76 76 74 72 74 77 81 84 81 72 63 53 43 36 32 25 18 17 20 19 11 4 3 0 3 14
86 85 83 82 82 82 82 84 86 88 88 88 90 93 94 95 96 96 96 97 97 97 97 97 95 91 88 86 84 80 74 70 68 69 69 68 66 62 59 56 53 51 49 44 44 49 53 55 58 55 49 46 45 41 39 46 55 62 70 74 70 66 69 73 75 76 76 73 69 64 57 49 42 34 27 23 17 12 13 19 24 24 23 18 8 1 8
87 84 83 83 83 82 83 84 85 85 83 82 83 85 87 88 88 89 91 92 91 91 92 94 93 90 86 82 78 75 70 66 62 59 58 60 59 56 53 51 49 46 44 41 39 42 47 49 49 47 45 46 48 46 46 55 65 70 75 77 75 72 73 75 73 68 60 52 48 45 39 33 29 25 20 16 14 12 13 17 21 25 28 27 19 8 4
89 85 84 84 83 82 83 82 82 83 83 80 77 76 76 77 78 80 83 85 84 81 78 77 74 69 66 64 63 63 61 59 56 50 44 42 41 39 36 35 37 39 39 38 34 35 42 46 42 36 39 45 47 45 46 55 64 68 70 72 75 78 78 72 63 54 46 40 36 32 29 26 23 21 21 20 17 14 14 15 17 19 21 22 21 15 9
91 88 86 85 84 83 82 81 82 84 84 80 78 77 75 74 75 75 74 77 78 77 76 73 68 61 55 50 46 43 39 36 36 36 31 28 27 24 17 13 18 25 31 33 32 32 37 40 34 30 33 35 34 38 50 57 61 66 70 69 67 69 69 65 56 45 36 32 27 22 19 18 19 21 23 23 22 20 19 17 16 16 16 17 17 15 12
94 91 88 85 85 86 86 85 85 85 81 79 81 82 80 78 76 71 64 62 63 63 65 68 66 60 52 42 35 30 23 18 22 30 28 21 17 13 7 3 6 13 19 24 27 28 31 31 25 21 24 27 27 35 52 58 56 54 52 52 54 58 54 42 37 37 33 28 22 19 15 13 14 16 18 18 22 27 27 23 20 20 18 17 16 15 14
104 100 94 87 87 91 92 91 88 84 80 80 84 87 85 84 83 78 70 62 56 52 51 50 45 40 36 32 30 28 21 15 18 27 23 12 6 5 4 360 357 359 6 15 22 24 28 31 25 12 5 7 10 25 44 48 36 27 18 14 24 33 29 20 22 31 31 20 9 6 5 3 2 6 8 10 14 21 26 27 28 29 26 23 22 21 19
134 124 118 111 103 100 98 93 86 81 79 80 82 83 83 87 92 91 82 66 55 51 49 42 34 28 26 24 24 24 22 18 19 20 11 358 356 1 1 355 348 345 350 1 14 23 28 27 12 330 302 302 303 310 331 327 327 333 345 355 1 4 5 10 14 17 17 13 3 356 359 1 0 1 6 9 11 15 20 23 26 29 28 26 26 25 22
134 129 125 119 110 102 101 102 100 99 99 96 90 84 81 88 94 91 75 50 40 40 39 34 32 30 24 18 16 14 11 11 14 11 358 347 346 348 347 342 338 336 338 345 358 14 29 31 349 284 279 283 285 286 296 303 305 317 339 358 5 8 11 12 10 6 4 5 3 4 13 20 18 15 18 20 19 20 23 26 28 29 28 26 25 23 20
134 128 122 112 99 91 93 105 118 124 124 112 96 92 95 96 91 83 59 24 13 9 2 6 25 25 10 1 358 356 355 358 1 359 352 346 342 338 334 331 330 330 332 335 342 352 7 20 12 277 270 278 284 293 306 313 321 9 49 60 59 49 37 24 15 12 14 21 29 37 47 50 45 38 34 33 31 32 36 39 39 38 35 32 28 23 19
146 143 130 114 106 97 92 93 97 94 86 86 87 79 70 65 59 39 11 357 352 348 339 325 11 18 4 355 351 349 349 347 346 345 345 342 338 334 331 326 322 323 329 333 336 342 358 15 24 20 6 323 291 296 320 70 109 104 98 88 73 61 54 42 31 30 38 49 56 58 62 64 60 53 47 46 47 48 48 47 45 43 39 34 28 24 22
Height
1484 1486 1486 1485 1487 1486 1485 1485 1485 1486 1489 1490 1489 1489 1488 1490 1494 1490 1484 1486 1488 1482 1479 1483 1484 1482 1481 1480 1479 1478 1476 1476 1475 1474 1474 1473 1474 1474 1475 1475 1475 1475 1475 1475 1475 1475 1474 1473 1472 1472 1471 1470 1470 1471 1470 1470 1470 1470 1469 1470 1474 1478 1483 1487 1491 1495 1497 1499 1499 1500 1501 1501 1501 1502 1502 1503 1504 1505 1506 1506 1506 1506 1506 1505 1504 1503 1502
1483 1484 1484 1483 1484 1484 1482 1482 1483 1486 1486 1485 1486 1486 1485 1487 1487 1483 1482 1486 1486 1484 1484 1484 1483 1482 1481 1480 1480 1478 1477 1477 1476 1475 1474 1474 1474 1474 1474 1474 1474 1474 1474 1474 1474 1473 1473 1472 1470 1469 1468 1467 1467 1467 1468 1469 1470 1469 1469 1468 1469 1472 1476 1482 1488 1494 1498 1500 1501 1501 1501 1502 1501 1501 1501 1502 1503 1504 1504 1505 1505 1505 1504 1503 1502 1500 1499
1485 1483 1481 1481 1482 1481 1480 1480 1483 1484 1483 1483 1484 1483 1482 1483 1483 1482 1484 1485 1483 1484 1485 1484 1483 1481 1479 1479 1479 1479 1478 1478 1477 1476 1475 1474 1474 1474 1474 1474 1473 1473 1473 1472 1472 1471 1470 1470 1469 1468 1467 1466 1465 1465 1466 1466 1466 1467 1468 1467 1466 1469 1472 1476 1482 1490 1496 1498 1500 1501 1501 1501 1501 1500 1501 1501 1502 1503 1503 1504 1504 1503 1502 1501 1499 1498 1497
1487 1482 1479 1480 1480 1480 1479 1480 1482 1481 1479 1479 1479 1479 1480 1481 1480 1482 1483 1482 1480 1483 1483 1482 1481 1480 1479 1479 1480 1479 1479 1478 1476 1476 1475 1475 1474 1474 1473 1473 1473 1472 1471 1470 1469 1469 1468 1468 1467 1467 1466 1465 1464 1463 1463 1463 1462 1462 1464 1465 1465 1466 1468 1470 1474 1481 1489 1494 1497 1499 1500 1500 1499 1499 1500 1500 1500 1501 1502 1502 1502 1501 1500 1498 1496 1495 1494
1488 1483 1480 1479 1482 1483 1479 1476 1476 1474 1474 1475 1477 1478 1480 1480 1479 1480 1481 1480 1480 1482 1482 1480 1479 1479 1479 1480 1479 1478 1478 1477 1476 1476 1475 1475 1475 1474 1473 1473 1472 1471 1470 1469 1468 1467 1466 1466 1465 1464 1464 1463 1462 1461 1460 1460 1460 1459 1459 1460 1462 1465 1467 1468 1469 1474 1481 1488 1493 1496 1497 1498 1498 1498 1498 1498 1499 1500 1500 1501 1500 1499 1497 1496 1494 1493 1492
1488 1483 1480 1482 1486 1485 1477 1471 1470 1470 1472 1474 1475 1477 1478 1478 1478 1479 1479 1480 1481 1481 1481 1480 1479 1479 1479 1479 1479 1477 1476 1476 1476 1476 1475 1475 1474 1473 1473 1472 1470 1469 1468 1467 1466 1464 1464 1463 1462 1461 1461 1460 1459 1458 1457 1457 1457 1457 1458 1457 1458 1461 1464 1465 1466 1469 1474 1480 1486 1490 1493 1494 1495 1495 1495 1496 1497 1497 1498 1498 1498 1497 1495 1494 1493 1492 1490
1488 1484 1483 1489 1489 1478 1469 1468 1468 1469 1471 1472 1474 1477 1479 1479 1478 1478 1479 1481 1481 1480 1480 1480 1479 1478 1478 1478 1478 1476 1476 1475 1475 1474 1473 1473 1472 1471 1470 1469 1468 1466 1465 1463 1462 1461 1460 1459 1459 1458 1457 1457 1456 1455 1454 1453 1453 1454 1457 1457 1456 1457 1460 1462 1463 1465 1468 1474 1479 1483 1487 1490 1491 1492 1492 1493 1494 1495 1496 1496 1495 1494 1494 1493 1492 1490 1488
1487 1486 1487 1489 1481 1470 1467 1469 1466 1466 1469 1471 1472 1476 1479 1480 1478 1478 1480 1481 1481 1480 1479 1478 1477 1476 1476 1476 1476 1475 1475 1474 1473 1472 1471 1470 1469 1468 1467 1466 1464 1463 1462 1460 1459 1458 1456 1455 1455 1454 1454 1454 1453 1452 1451 1451 1451 1451 1454 1457 1457 1456 1457 1459 1462 1463 1466 1470 1475 1478 1482 1486 1487 1488 1489 1491 1492 1492 1493 1493 1493 1492 1492 1491 1489 1487 1485
1480 1482 1483 1481 1475 1471 1469 1467 1465 1465 1465 1466 1467 1471 1477 1479 1478 1477 1478 1479 1478 1478 1477 1476 1475 1473 1471 1471 1472 1473 1472 1471 1470 1469 1468 1467 1466 1465 1464 1463 1461 1460 1459 1457 1456 1455 1453 1452 1451 1451 1451 1450 1449 1449 1448 1449 1450 1449 1450 1455 1459 1459 1459 1460 1464 1465 1466 1469 1474 1476 1479 1482 1484 1485 1487 1488 1489 1490 1490 1490 1490 1490 1490 1488 1486 1484 1482
1476 1478 1481 1482 1481 1478 1473 1470 1470 1468 1466 1465 1465 1468 1474 1477 1476 1476 1476 1476 1475 1475 1474 1473 1471 1470 1469 1468 1468 1469 1469 1468 1467 1466 1465 1464 1463 1462 1461 1459 1458 1456 1455 1454 1452 1451 1449 1448 1448 1448 1447 1446 1446 1445 1445 1445 1447 1447 1448 1451 1457 1460 1461 1463 1465 1467 1467 1470 1474 1477 1479 1481 1482 1483 1485 1486 1487 1487 1487 1488 1488 1487 1487 1485 1484 1481 1479
1477 1478 1481 1481 1479 1478 1477 1476 1474 1471 1470 1468 1467 1470 1475 1476 1475 1475 1474 1474 1474 1473 1473 1472 1470 1471 1472 1468 1464 1465 1466 1465 1463 1462 1461 1460 1459 1458 1457 1456 1454 1453 1451 1450 1448 1447 1445 1443 1443 1444 1443 1442 1442 1441 1441 1441 1443 1444 1445 1448 1453 1457 1460 1462 1463 1464 1467 1470 1473 1475 1477 1479 1481 1482 1483 1484 1484 1485 1485 1485 1485 1485 1484 1483 1481 1479 1476
1479 1481 1483 1481 1477 1476 1478 1478 1475 1473 1471 1469 1471 1477 1478 1475 1474 1474 1473 1473 1473 1472 1472 1472 1471 1472 1471 1466 1461 1461 1462 1461 1460 1459 1457 1456 1455 1454 1453 1452 1451 1449 1448 1445 1443 1442 1440 1438 1438 1439 1438 1438 1437 1437 1437 1438 1438 1439 1441 1445 1450 1454 1457 1460 1462 1464 1468 1471 1473 1474 1475 1477 1479 1481 1481 1482 1482 1482 1482 1482 1482 1482 1481 1480 1478 1476 1473
1480 1483 1486 1484 1479 1479 1479 1477 1476 1474 1472 1472 1479 1482 1478 1473 1473 1473 1472 1471 1471 1470 1470 1470 1469 1468 1467 1463 1459 1459 1460 1459 1457 1456 1455 1453 1451 1450 1449 1448 1447 1445 1443 1441 1439 1437 1435 1434 1433 1434 1433 1432 1432 1432 1433 1434 1433 1435 1438 1442 1447 1451 1454 1457 1461 1464 1468 1471 1473 1473 1475 1476 1478 1479 1480 1480 1479 1480 1480 1480 1480 1479 1478 1477 1475 1473 1470
1480 1482 1485 1483 1481 1481 1480 1477 1475 1474 1475 1479 1482 1478 1474 1473 1473 1472 1471 1471 1469 1469 1468 1468 1466 1465 1463 1462 1459 1457 1457 1456 1454 1453 1451 1450 1448 1446 1445 1444 1443 1441 1438 1436 1434 1432 1431 1430 1429 1429 1428 1427 1427 1427 1428 1430 1431 1432 1434 1438 1443 1448 1453 1457 1460 1463 1467 1470 1472 1473 1474 1475 1477 1477 1477 1477 1477 1477 1477 1477 1477 1477 1476 1475 1473 1471 1469
1483 1482 1481 1481 1482 1481 1479 1477 1477 1476 1478 1480 1477 1473 1473 1473 1471 1471 1471 1469 1468 1468 1467 1466 1465 1463 1462 1461 1459 1456 1454 1453 1452 1450 1449 1447 1445 1443 1441 1439 1438 1437 1434 1431 1429 1428 1427 1427 1426 1425 1424 1423 1423 1423 1424 1426 1429 1431 1432 1435 1440 1445 1450 1455 1459 1463 1466 1468 1470 1472 1473 1474 1474 1474 1474 1475 1475 1475 1475 1475 1475 1475 1474 1472 1471 1469 1467
1487 1485 1482 1481 1481 1479 1478 1478 1478 1476 1476 1475 1474 1473 1473 1471 1470 1470 1469 1468 1468 1467 1465 1464 1463 1461 1459 1458 1456 1454 1452 1450 1449 1447 1445 1444 1442 1439 1437 1435 1433 1431 1429 1427 1426 1425 1424 1424 1423 1422 1421 1420 1419 1419 1420 1422 1426 1428 1430 1432 1438 1444 1449 1454 1458 1461 1464 1467 1468 1470 1471 1471 1472 1472 1473 1473 1474 1473 1473 1473 1473 1473 1472 1470 1468 1466 1464
1484 1483 1480 1478 1477 1477 1477 1477 1476 1475 1474 1474 1473 1472 1471 1470 1470 1469 1467 1466 1466 1464 1463 1462 1460 1458 1457 1455 1454 1452 1449 1446 1445 1444 1442 1440 1438 1436 1433 1430 1428 1427 1425 1423 1422 1422 1421 1421 1419 1418 1418 1416 1415 1416 1417 1419 1422 1424 1426 1429 1435 1443 1450 1454 1457 1460 1463 1465 1467 1468 1468 1469 1470 1470 1471 1472 1472 1472 1472 1472 1472 1471 1470 1468 1466 1464 1461
1481 1478 1476 1475 1476 1475 1475 1474 1473 1473 1472 1471 1471 1470 1469 1468 1467 1466 1465 1464 1462 1461 1461 1459 1456 1455 1453 1452 1450 1448 1446 1443 1442 1440 1438 1436 1434 1432 1429 1427 1425 1424 1422 1421 1420 1419 1418 1417 1416 1415 1414 1413 1412 1413 1414 1416 1419 1422 1425 1430 1437 1444 1449 1454 1457 1460 1462 1463 1465 1466 1466 1467 1468 1469 1471 1471 1471 1471 1471 1471 1470 1469 1468 1466 1464 1461 1458
1482 1478 1474 1474 1474 1473 1471 1471 1471 1470 1470 1469 1468 1467 1466 1465 1465 1464 1462 1461 1460 1459 1457 1455 1453 1451 1450 1449 1447 1444 1443 1440 1438 1436 1434 1432 1430 1428 1426 1424 1423 1421 1419 1418 1417 1416 1415 1413 1413 1413 1413 1412 1411 1411 1412 1416 1420 1423 1428 1434 1439 1444 1449 1454 1457 1459 1460 1462 1463 1464 1465 1466 1467 1469 1470 1470 1470 1470 1470 1469 1468 1467 1465 1463 1461 1458 1455
1480 1476 1473 1472 1471 1470 1469 1469 1468 1467 1466 1466 1465 1464 1463 1462 1461 1460 1459 1458 1457 1455 1454 1453 1451 1449 1447 1446 1444 1441 1439 1437 1435 1433 1431 1428 1426 1425 1423 1421 1420 1418 1417 1416 1415 1413 1412 1411 1411 1412 1413 1413 1413 1413 1416 1420 1424 1427 1432 1437 1441 1445 1450 1454 1456 1458 1460 1461 1462 1463 1464 1466 1467 1469 1469 1469 1469 1469 1468 1467 1466 1465 1463 1460 1457 1454 1451
1477 1474 1471 1470 1468 1466 1466 1466 1466 1464 1463 1462 1461 1461 1460 1458 1457 1456 1455 1454 1454 1452 1451 1450 1448 1446 1444 1443 1441 1438 1436 1434 1432 1430 1427 1425 1423 1421 1420 1418 1417 1415 1414 1414 1414 1413 1411 1411 1411 1412 1414 1416 1417 1418 1421 1425 1428 1431 1435 1439 1443 1447 1451 1454 1456 1458 1459 1460 1461 1462 1464 1466 1467 1468 1468 1468 1467 1467 1466 1465 1464 1462 1460 1457 1454 1451 1448
1478 1474 1471 1470 1470 1466 1463 1463 1464 1463 1461 1460 1459 1457 1456 1455 1454 1453 1451 1450 1450 1449 1448 1447 1445 1443 1441 1440 1439 1436 1433 1431 1429 1427 1424 1422 1420 1418 1417 1415 1414 1413 1413 1413 1413 1412 1411 1411 1411 1413 1415 1417 1419 1421 1425 1428 1430 1433 1436 1440 1444 1448 1451 1454 1456 1457 1458 1459 1461 1462 1464 1465 1466 1466 1466 1466 1466 1465 1464 1463 1461 1460 1457 1454 1452 1449 1446
1475 1472 1470 1470 1469 1465 1461 1461 1461 1460 1460 1459 1456 1454 1454 1452 1451 1450 1448 1447 1446 1445 1445 1444 1442 1440 1438 1437 1436 1434 1431 1429 1426 1424 1421 1419 1417 1415 1414 1413 1411 1411 1412 1412 1412 1411 1410 1410 1411 1412 1414 1417 1420 1424 1427 1430 1433 1435 1438 1441 1445 1448 1451 1453 1455 1456 1457 1459 1460 1462 1463 1464 1465 1465 1465 1464 1464 1463 1462 1461 1459 1457 1455 1452 1450 1447 1444
1470 1468 1468 1467 1465 1462 1459 1459 1458 1457 1457 1456 1453 1451 1450 1449 1448 1447 1446 1445 1444 1443 1441 1440 1439 1438 1436 1435 1434 1431 1428 1426 1423 1421 1419 1416 1414 1412 1411 1410 1410 1411 1412 1412 1412 1411 1411 1411 1411 1413 1416 1419 1423 1427 1430 1432 1435 1437 1440 1443 1446 1448 1450 1452 1453 1455 1457 1458 1460 1461 1462 1463 1464 1464 1463 1463 1462 1462 1461 1459 1457 1455 1453 1450 1448 1446 1443
1467 1465 1465 1464 1462 1459 1458 1456 1454 1454 1454 1453 1450 1448 1447 1446 1445 1444 1443 1442 1442 1441 1439 1437 1437 1436 1434 1432 1431 1429 1426 1423 1421 1418 1416 1413 1411 1410 1409 1409 1409 1409 1410 1411 1411 1411 1412 1413 1415 1416 1419 1423 1426 1429 1432 1434 1436 1439 1441 1444 1446 1448 1449 1451 1453 1455 1457 1458 1459 1460 1461 1462 1462 1462 1462 1461 1461 1460 1459 1457 1455 1453 1451 1449 1447 1444 1441
1465 1463 1462 1460 1458 1457 1456 1454 1451 1450 1450 1449 1447 1445 1444 1443 1442 1441 1440 1440 1439 1438 1437 1436 1435 1434 1433 1431 1429 1427 1424 1421 1418 1416 1414 1411 1409 1408 1408 1408 1408 1408 1409 1409 1411 1412 1414 1415 1418 1420 1422 1425 1429 1432 1434 1436 1438 1440 1442 1444 1446 1447 1449 1451 1453 1455 1456 1457 1459 1459 1460 1461 1461 1461 1461 1460 1459 1458 1457 1456 1454 1452 1450 1448 1446 1443 1439
1462 1461 1459 1457 1454 1453 1453 1451 1448 1446 1446 1445 1443 1442 1440 1440 1439 1438 1438 1437 1437 1436 1435 1434 1433 1432 1431 1430 1429 1426 1422 1418 1416 1414 1412 1409 1408 1407 1407 1407 1407 1407 1409 1410 1411 1413 1415 1417 1421 1423 1425 1428 1431 1433 1435 1437 1439 1441 1443 1444 1446 1448 1450 1451 1453 1454 1456 1457 1458 1459 1459 1460 1460 1460 1459 1458 1457 1457 1455 1454 1453 1451 1449 1447 1444 1441 1438
1458 1457 1457 1454 1451 1449 1449 1447 1445 1444 1443 1442 1440 1439 1437 1436 1436 1435 1435 1435 1435 1434 1433 1432 1431 1431 1430 1430 1428 1425 1420 1417 1414 1412 1410 1408 1407 1406 1405 1406 1407 1408 1409 1410 1411 1413 1416 1420 1424 1426 1427 1430 1432 1434 1436 1437 1439 1441 1443 1444 1446 1449 1450 1452 1453 1454 1456 1457 1457 1458 1458 1458 1458 1458 1457 1457 1456 1455 1454 1453 1452 1450 1448 1446 1443 1440 1437
1453 1453 1452 1451 1449 1447 1445 1444 1442 1441 1439 1439 1438 1437 1435 1434 1434 1433 1433 1433 1432 1432 1431 1430 1430 1430 1430 1429 1426 1423 1420 1417 1414 1412 1409 1408 1407 1407 1406 1408 1410 1411 1411 1412 1414 1417 1421 1425 1428 1429 1430 1432 1434 1436 1437 1438 1440 1442 1443 1445 1447 1449 1450 1452 1453 1454 1455 1456 1457 1457 1457 1457 1457 1457 1457 1456 1456 1454 1453 1452 1451 1449 1447 1444 1441 1438 1435
1449 1449 1448 1447 1446 1444 1443 1441 1439 1438 1437 1436 1435 1434 1434 1433 1432 1432 1431 1431 1431 1430 1430 1429 1429 1429 1429 1427 1425 1423 1421 1418 1416 1414 1412 1410 1409 1409 1409 1410 1411 1412 1414 1416 1419 1422 1425 1428 1430 1431 1433 1434 1436 1437 1438 1440 1441 1443 1444 1446 1447 1449 1450 1452 1453 1454 1455 1455 1455 1456 1456 1457 1457 1457 1456 1455 1455 1453 1452 1451 1449 1447 1445 1442 1439 1436 1433
1445 1445 1444 1444 1443 1442 1440 1439 1437 1436 1435 1434 1433 1433 1432 1432 1431 1430 1429 1429 1430 1430 1429 1429 1429 1428 1428 1427 1425 1424 1422 1420 1418 1416 1413 1410 1409 1410 1412 1412 1413 1415 1418 1421 1423 1426 1428 1430 1431 1432 1433 1436 1437 1438 1439 1440 1442 1443 1445 1446 1448 1449 1451 1452 1453 1453 1454 1454 1455 1455 1456 1456 1456 1456 1455 1454 1453 1452 1451 1449 1448 1446 1444 1441 1438 1435 1432
1443 1442 1442 1441 1441 1440 1438 1437 1436 1434 1433 1433 1431 1430 1429 1429 1429 1428 1427 1428 1429 1430 1429 1429 1428 1428 1428 1427 1426 1424 1423 1422 1420 1417 1414 1412 1413 1414 1414 1414 1416 1418 1422 1424 1427 1429 1430 1432 1432 1433 1435 1437 1438 1439 1440 1441 1442 1444 1446 1447 1449 1450 1451 1451 1452 1452 1453 1454 1455 1455 1456 1456 1455 1455 1454 1453 1452 1451 1450 1448 1447 1445 1443 1440 1438 1435 1432
1443 1442 1441 1441 1440 1439 1437 1436 1434 1433 1432 1431 1429 1428 1427 1426 1426 1426 1426 1427 1429 1430 1429 1428 1428 1428 1428 1428 1426 1426 1425 1424 1422 1420 1419 1418 1419 1419 1417 1416 1418 1421 1424 1427 1429 1430 1431 1433 1434 1434 1436 1438 1439 1439 1441 1442 1443 1445 1446 1448 1449 1450 1450 1451 1451 1452 1453 1454 1455 1455 1455 1454 1454 1453 1453 1452 1451 1450 1448 1447 1446 1444 1442 1440 1437 1435 1432
1444 1443 1442 1441 1440 1439 1437 1436 1435 1433 1431 1430 1428 1427 1425 1425 1425 1426 1426 1427 1429 1429 1428 1429 1429 1429 1429 1429 1428 1428 1427 1426 1425 1424 1423 1423 1423 1423 1423 1421 1421 1423 1426 1429 1431 1432 1433 1434 1436 1437 1437 1438 1439 1440 1441 1443 1444 1446 1447 1448 1449 1450 1450 1451 1451 1452 1453 1454 1454 1454 1453 1453 1452 1452 1451 1451 1450 1449 1448 1446 1445 1443 1441 1439 1437 1435 1432
1445 1444 1442 1441 1440 1439 1438 1436 1435 1433 1431 1430 1428 1426 1425 1425 1426 1427 1427 1428 1429 1429 1429 1430 1431 1431 1430 1430 1430 1429 1429 1429 1429 1428 1427 1427 1427 1428 1427 1426 1426 1427 1428 1430 1433 1434 1435 1436 1438 1439 1439 1439 1440 1441 1442 1444 1445 1446 1448 1448 1449 1449 1450 1451 1451 1452 1453 1453 1453 1452 1452 1452 1451 1451 1451 1450 1450 1448 1447 1446 1444 1442 1440 1439 1437 1435 1432
1445 1444 1442 1441 1440 1439 1437 1436 1435 1433 1432 1431 1430 1428 1427 1427 1428 1429 1429 1430 1431 1432 1431 1432 1432 1432 1432 1432 1433 1433 1433 1433 1433 1432 1431 1431 1431 1430 1429 1429 1430 1431 1432 1433 1435 1437 1438 1438 1440 1441 1441 1441 1441 1442 1443 1445 1446 1447 1448 1448 1449 1449 1450 1450 1451 1452 1452 1452 1452 1452 1451 1451 1451 1451 1450 1450 1449 1448 1447 1445 1444 1442 1440 1438 1437 1435 1433
1447 1445 1443 1441 1440 1439 1438 1437 1436 1435 1434 1433 1432 1431 1431 1431 1431 1432 1432 1433 1434 1435 1434 1434 1435 1435 1435 1436 1436 1436 1436 1436 1436 1435 1435 1435 1434 1433 1433 1434 1435 1435 1435 1436 1439 1440 1440 1441 1441 1441 1441 1441 1443 1443 1444 1445 1446 1447 1448 1448 1449 1450 1450 1451 1451 1452 1452 1452 1452 1452 1451 1451 1451 1450 1450 1449 1449 1447 1446 1445 1443 1441 1440 1439 1437 1435 1433
1448 1446 1444 1443 1441 1440 1439 1438 1437 1437 1436 1435 1435 1435 1434 1434 1434 1435 1436 1437 1438 1438 1438 1438 1439 1439 1439 1439 1439 1439 1440 1440 1439 1439 1439 1439 1437 1436 1436 1438 1439 1439 1439 1441 1443 1443 1443 1443 1443 1442 1442 1443 1444 1445 1446 1447 1447 1447 1448 1449 1450 1450 1451 1451 1452 1452 1452 1452 1452 1452 1451 1451 1450 1450 1450 1449 1448 1447 1446 1444 1443 1442 1440 1439 1437 1435 1433
1450 1448 1447 1445 1444 1443 1441 1440 1439 1439 1438 1438 1438 1438 1438 1438 1438 1438 1439 1440 1441 1442 1443 1443 1443 1443 1443 1443 1443 1443 1444 1444 1443 1443 1443 1442 1441 1441 1442 1443 1444 1444 1445 1446 1446 1446 1445 1445 1444 1444 1444 1445 1446 1447 1448 1448 1449 1449 1449 1450 1450 1451 1451 1452 1452 1453 1453 1453 1452 1451 1451 1451 1450 1450 1449 1449 1448 1447 1445 1444 1443 1441 1440 1438 1437 1435 1434
1452 1451 1450 1448 1447 1446 1444 1443 1442 1442 1442 1441 1441 1441 1442 1442 1441 1441 1442 1444 1446 1446 1447 1447 1447 1448 1448 1448 1448 1448 1448 1448 1448 1447 1447 1447 1447 1446 1447 1447 1448 1448 1449 1449 1449 1448 1448 1447 1447 1447 1447 1447 1448 1449 1450 1450 1450 1450 1450 1450 1451 1451 1452 1452 1453 1453 1453 1453 1452 1451 1451 1450 1450 1450 1449 1449 1448 1447 1445 1444 1443 1441 1440 1438 1437 1436 1434
1455 1454 1453 1452 1451 1450 1448 1447 1446 1446 1446 1446 1446 1446 1446 1446 1446 1446 1447 1448 1449 1449 1450 1450 1451 1451 1452 1452 1451 1452 1452 1452 1452 1451 1451 1451 1450 1450 1450 1450 1451 1452 1452 1451 1451 1450 1450 1449 1449 1449 1449 1450 1450 1451 1452 1452 1452 1451 1451 1451 1451 1452 1452 1452 1453 1453 1453 1452 1452 1451 1450 1450 1450 1450 1449 1448 1447 1446 1445 1444 1443 1441 1439 1438 1437 1436 1434
1458 1457 1456 1455 1454 1454 1453 1452 1451 1450 1450 1451 1451 1451 1451 1451 1450 1450 1451 1452 1452 1453 1453 1454 1454 1454 1455 1455 1454 1454 1454 1455 1455 1454 1454 1453 1453 1453 1452 1453 1454 1454 1453 1453 1452 1452 1451 1451 1451 1451 1452 1452 1452 1452 1453 1453 1452 1452 1452 1452 1452 1452 1453 1453 1453 1453 1453 1453 1452 1451 1450 1450 1450 1449 1449 1448 1447 1447 1446 1445 1443 1441 1439 1438 1437 1436 1435
1460 1459 1458 1458 1457 1457 1456 1456 1455 1455 1454 1455 1455 1455 1455 1455 1455 1455 1455 1456 1456 1456 1456 1457 1457 1457 1457 1457 1457 1456 1456 1457 1457 1457 1456 1456 1456 1456 1456 1456 1456 1456 1455 1454 1454 1453 1452 1452 1453 1453 1453 1454 1453 1453 1453 1453 1453 1453 1453 1453 1453 1453 1454 1454 1454 1454 1454 1453 1452 1451 1450 1450 1449 1449 1448 1448 1447 1447 1446 1445 1443 1442 1440 1438 1437 1436 1435
1462 1461 1461 1460 1460 1459 1459 1459 1458 1458 1458 1458 1459 1459 1458 1458 1459 1459 1459 1459 1459 1459 1459 1459 1459 1459 1459 1459 1459 1458 1458 1458 1459 1459 1458 1458 1458 1458 1458 1459 1458 1458 1457 1456 1456 1455 1454 1454 1454 1455 1455 1455 1454 1454 1454 1454 1454 1454 1454 1454 1454 1454 1454 1455 1455 1455 1454 1453 1452 1451 1450 1450 1449 1449 1448 1448 1447 1447 1446 1445 1443 1442 1440 1439 1437 1436 1435
1464 1464 1463 1463 1462 1462 1462 1461 1461 1461 1461 1462 1462 1462 1461 1461 1461 1462 1462 1462 1462 1462 1462 1462 1462 1462 1462 1461 1461 1461 1461 1460 1460 1460 1459 1459 1459 1459 1459 1460 1460 1459 1458 1458 1457 1457 1456 1456 1456 1456 1456 1456 1455 1455 1455 1455 1455 1455 1455 1455 1455 1455 1455 1455 1455 1455 1454 1453 1452 1451 1450 1450 1449 1448 1448 1447 1447 1446 1445 1444 1443 1442 1441 1439 1438 1436 1435
1466 1466 1466 1465 1465 1465 1465 1464 1464 1464 1464 1464 1463 1464 1464 1464 1464 1464 1464 1464 1464 1465 1465 1465 1464 1464 1464 1464 1463 1463 1463 1462 1461 1461 1460 1460 1460 1460 1460 1460 1460 1460 1459 1458 1458 1457 1457 1457 1457 1457 1456 1456 1456 1456 1455 1455 1455 1455 1455 1455 1455 1455 1455 1455 1455 1455 1454 1453 1452 1451 1450 1450 1449 1448 1448 1447 1446 1446 1445 1445 1444 1442 1441 1440 1438 1437 1435
1468 1467 1467 1467 1467 1467 1467 1467 1467 1467 1466 1466 1465 1466 1467 1467 1466 1466 1466 1467 1467 1467 1467 1467 1467 1466 1466 1466 1465 1465 1464 1463 1463 1462 1462 1462 1461 1461 1461 1460 1460 1460 1459 1459 1458 1458 1458 1457 1457 1457 1457 1457 1457 1456 1456 1456 1456 1456 1455 1455 1455 1455 1455 1455 1455 1454 1454 1453 1452 1451 1450 1449 1449 1448 1447 1447 1446 1446 1445 1444 1444 1443 1441 1440 1439 1437 1436
1469 1469 1469 1469 1469 1469 1469 1469 1469 1468 1468 1468 1467 1468 1468 1468 1468 1468 1468 1468 1468 1468 1468 1468 1468 1468 1468 1467 1467 1466 1465 1465 1464 1464 1463 1463 1463 1462 1461 1461 1460 1460 1460 1459 1459 1459 1458 1458 1458 1458 1457 1457 1457 1457 1456 1456 1456 1456 1456 1455 1455 1455 1455 1455 1454 1454 1453 1453 1452 1451 1450 1449 1449 1448 1447 1447 1446 1445 1445 1444 1444 1443 1442 1441 1439 1438 1436
1469 1469 1469 1469 1469 1470 1470 1470 1470 1470 1470 1470 1470 1470 1470 1470 1470 1470 1470 1469 1469 1469 1469 1468 1468 1468 1468 1467 1467 1467 1466 1466 1465 1465 1464 1464 1463 1463 1462 1461 1460 1459 1459 1459 1459 1459 1459 1458 1458 1458 1458 1458 1457 1457 1457 1456 1456 1456 1456 1455 1455 1455 1455 1454 1453 1453 1452 1452 1451 1450 1449 1449 1448 1447 1447 1446 1446 1445 1445 1444 1444 1443 1442 1441 1440 1438 1437
1469 1469 1470 1470 1470 1471 1471 1471 1471 1471 1472 1472 1472 1471 1471 1471 1471 1471 1471 1471 1470 1470 1470 1469 1469 1469 1468 1468 1468 1467 1467 1467 1466 1466 1465 1464 1464 1463 1462 1462 1460 1459 1459 1459 1459 1459 1459 1458 1458 1458 1457 1457 1457 1457 1456 1456 1456 1456 1456 1455 1455 1455 1454 1454 1453 1452 1452 1451 1450 1449 1449 1448 1448 1447 1447 1446 1445 1445 1445 1444 1444 1443 1442 1441 1440 1439 1437
1470 1470 1470 1471 1471 1472 1472 1472 1472 1472 1473 1473 1473 1473 1473 1472 1472 1472 1472 1472 1471 1471 1470 1470 1470 1469 1469 1469 1468 1468 1468 1467 1467 1466 1465 1465 1464 1464 1463 1462 1461 1460 1459 1459 1458 1458 1458 1458 1458 1457 1457 1457 1456 1456 1456 1456 1456 1456 1456 1455 1455 1455 1454 1453 1453 1452 1451 1450 1449 1449 1448 1448 1448 1447 1447 1446 1446 1445 1445 1445 1445 1444 1443 1442 1441 1440 1438
1470 1470 1470 1471 1471 1472 1472 1472 1472 1473 1473 1473 1473 1473 1473 1473 1473 1473 1472 1471 1471 1470 1470 1470 1470 1469 1469 1469 1468 1468 1467 1467 1466 1466 1465 1465 1464 1464 1463 1462 1461 1460 1459 1458 1458 1458 1457 1457 1457 1457 1456 1456 1456 1456 1456 1456 1456 1456 1456 1456 1455 1455 1454 1453 1452 1451 1450 1450 1449 1449 1448 1448 1448 1448 1447 1447 1446 1446 1446 1446 1445 1445 1444 1443 1442 1440 1439